[[{"header":{"parameterUnit":"m.s-1","parameterCategory":1,"la1":30.2991,"la2":30.254,"lo1":-89.0895,"lo2":-89.0444,"dy":0.0017,"dx":0.0017,"nx":28,"ny":28,"refTime":"2025-03-05T09:00:00:Z","depth":0,"parameterNumber":2,"parameterNumberName":"U-component_of_WINDS"},"data":[0,0,0,0,0,0,0,0,0,0,0,0,0,0,0,0,0,0,0,0,0,0,0,0,0,0,0,0,0,0,0,0,0,0,0,0,0,0,0,0,0,0,0,0,0,0,0,0,0,0,0,0,0,0,0,0,0,0,9.9623,9.9626,0,9.9854,9.9857,9.9859,9.9732,9.9726,9.9719,9.9713,9.9954,9.9966,9.9979,0,0,0,0,0,0,0,0,0,0,0,0,0,9.9077,9.9087,9.9623,9.9626,9.9629,9.9854,9.9857,9.986,9.9733,9.9725,9.9718,9.971,9.995,9.9965,9.998,0,0,0,0,0,0,0,0,0,0,0,0,0,9.9312,9.9091,9.9622,9.9592,9.9592,9.9853,9.9857,9.9861,9.9735,9.9725,9.9716,9.9707,9.9946,9.9963,9.9982,10.0287,0,0,10.0038,10.0046,0,0,0,0,0,0,0,0,9.9299,9.9332,9.9594,9.9595,9.9595,9.9754,9.9753,10.0004,9.9737,9.9681,9.9713,9.9702,9.9896,9.9918,9.9982,10.0298,10.0309,10.004,10.0051,10.0059,10.0064,0,0,0,0,0,0,0,9.9282,9.9321,9.9714,9.9598,9.9599,9.9569,9.9592,9.98,9.9839,9.9685,9.9676,9.9705,9.9894,9.9965,9.9987,10.0312,10.0039,10.0056,10.0067,10.0075,10.0893,10.0903,0,0,0,0,0,0,9.9267,9.9308,9.9707,9.9721,9.942,9.9587,9.9612,9.9713,9.9836,9.9846,9.9713,9.9698,9.9938,9.9966,9.9995,10.0362,10.0059,10.0076,10.0087,10.0883,10.0896,10.0907,0,0,0,0,0,0,9.9256,9.9304,9.9698,9.9513,9.956,9.9606,9.972,9.9722,9.9793,9.9858,9.9864,9.9777,9.9931,9.9969,10.0216,10.0369,10.0085,10.0102,10.087,10.0887,10.0901,10.1099,0,0,0,0,0,0,9.9241,9.9301,9.9416,9.9516,9.9571,9.9914,9.973,9.9734,9.9824,9.9807,9.992,9.9929,9.9927,10.0189,10.0234,10.0389,10.0116,10.0857,10.0877,10.0896,10.1079,10.112,10.1154,0,0,0,0,0,9.9222,9.9463,9.9422,9.9471,9.9716,9.9923,9.9954,9.9945,9.9837,9.9955,9.9996,9.9926,10.0345,10.0215,10.0265,10.0428,10.0847,10.0872,10.0895,10.1062,10.1112,10.1154,0,0,0,0,0,0,9.938,9.9475,9.9432,9.9712,9.981,9.9901,10.0048,9.9997,10.0129,10.0108,10.0092,10.0119,10.0376,10.0426,10.028,10.0732,10.0579,10.0614,10.0689,10.0737,10.0774,10.0757,10.0131,0,0,0,0,0,9.9448,9.9606,9.9681,9.9921,9.9973,10.0003,10.0092,10.0077,10.0178,10.022,10.0279,10.0382,10.0537,10.0639,10.0785,10.1085,10.1109,10.1222,10.126,10.1291,10.1322,10.1486,10.1538,10.0986,10.0985,10.0985,0,0,9.9589,9.966,9.9762,9.9955,10.0029,10.0196,10.0038,10.0221,10.0345,10.0248,10.0485,10.0533,10.0646,10.0922,10.1046,10.0972,10.148,10.1321,10.1345,10.136,10.1516,10.1569,10.1615,10.1002,10.0999,10.0996,0,0,9.9932,10.0001,10.0209,10.0287,10.0401,10.042,10.047,10.0569,10.0597,10.0834,10.0766,10.0914,10.118,10.1265,10.1343,10.172,10.1661,10.1768,10.1966,10.2126,10.217,10.2208,10.2345,10.2394,10.1798,10.1799,10.1799,0,10.0093,10.034,10.0323,10.0512,10.06,10.0519,10.0732,10.0808,10.0965,10.1029,10.0943,10.1277,10.1348,10.1643,10.1735,10.18,10.1859,10.1755,10.2165,10.2203,10.2239,10.2369,10.242,10.1811,10.181,10.1808,10.1807,0,10.0534,10.0707,10.0862,10.1015,10.112,10.132,10.1336,10.1445,10.1421,10.1449,10.1693,10.1775,10.1937,10.2006,10.1984,10.2299,10.225,10.2165,10.2012,10.2304,10.2427,10.2476,10.1829,10.1824,10.1821,10.1818,0,0,10.0984,10.1125,10.1183,10.1252,10.1373,10.1507,10.1704,10.1861,10.1956,10.2068,10.2234,10.2462,10.2385,10.2474,10.2461,10.2602,10.2898,10.25,10.2502,10.2573,10.3253,10.3317,10.3375,10.2859,10.2868,10.2876,10.3244,0,10.1336,10.1679,10.1671,10.1991,10.2151,10.2077,10.2249,10.2343,10.2375,10.2517,10.2553,10.2716,10.26,10.2653,10.2789,10.2833,10.3035,10.2806,10.3016,10.3024,10.2991,10.3439,10.3507,10.3851,10.3292,10.33,10.3306,0,10.1793,10.1919,10.2255,10.2354,10.2421,10.2575,10.272,10.2856,10.2962,10.2976,10.3076,10.3041,10.3243,10.3084,10.3364,10.3209,10.3294,10.3329,10.3342,10.3362,10.3184,10.3473,10.396,10.4012,10.338,10.3374,10.3369,0,10.209,10.2344,10.2578,10.2639,10.276,10.2871,10.2926,10.3022,10.3118,10.3245,10.3308,10.3457,10.354,10.3657,10.3665,10.3547,10.3948,10.3788,10.3967,10.3967,10.4056,10.4051,10.4565,10.4109,10.4108,10.4107,10.4106,0,10.2485,10.2695,10.2713,10.2858,10.309,10.3079,10.331,10.3356,10.3442,10.3596,10.3541,10.3686,10.3686,10.3835,10.3843,10.4075,10.4112,10.413,10.413,10.4136,10.4135,10.4193,10.417,10.412,10.4117,10.4115,10.4112,0,10.2857,10.2878,10.3128,10.3222,10.325,10.3418,10.3499,10.3638,10.3664,10.3859,10.3905,10.3948,10.412,10.4139,10.434,10.4345,10.4626,10.4599,10.459,10.4587,10.4765,10.4748,10.5336,10.5414,10.4905,10.491,10.4914,0,10.3109,10.3268,10.3379,10.3477,10.3539,10.3698,10.3795,10.3791,10.3895,10.4029,10.4152,10.4319,10.4452,10.4732,10.4783,10.4937,10.4915,10.511,10.4938,10.494,10.492,10.4911,10.4928,10.5144,10.5149,10.5154,10.5158,0,10.3555,10.3558,10.3699,10.3847,10.3964,10.408,10.4188,10.4272,10.4282,10.4402,10.4577,10.4681,10.4886,10.5054,10.5206,10.5264,10.5215,10.5211,10.5261,10.527,10.5259,10.527,10.4683,10.5198,10.5194,10.5191,10.5189,10.5187,10.3876,10.4015,10.4115,10.4275,10.4356,10.4459,10.4594,10.4638,10.4784,10.495,10.4939,10.5133,10.5237,10.5435,10.5506,10.5659,10.5594,10.5666,10.5684,10.5703,10.5722,10.5233,10.5686,10.5685,10.5684,10.5683,10.5682,0,10.4321,10.4381,10.4529,10.4682,10.481,10.4749,10.4866,10.4977,10.5149,10.5249,10.5381,10.5584,10.5746,10.581,10.5969,10.608,10.6061,10.6122,10.6114,10.6129,10.5769,10.5711,10.6134,10.6134,10.6134,10.6134,10.6134,10.6134,10.4567,10.4799,10.4814,10.5087,10.5146,10.5335,10.5407,10.5503,10.5583,10.5811,10.5945,10.5985,10.6071,10.6236,10.6384,10.6398,10.646,10.6532,10.6537,10.62,10.6154,10.6111,10.6056,10.6545,10.6546,10.6884,10.6887,10.689]},{"header":{"parameterUnit":"m.s-1","parameterCategory":1,"la1":30.2991,"la2":30.254,"lo1":-89.0895,"lo2":-89.0444,"dy":0.0017,"dx":0.0017,"nx":28,"ny":28,"refTime":"2025-03-05T09:00:00:Z","depth":0,"parameterNumber":3,"parameterNumberName":"V-component_of_WINDS"},"data":[0,0,0,0,0,0,0,0,0,0,0,0,0,0,0,0,0,0,0,0,0,0,0,0,0,0,0,0,0,0,0,0,0,0,0,0,0,0,0,0,0,0,0,0,0,0,0,0,0,0,0,0,0,0,0,0,0,0,0.0014,0.0015,0,0.0098,0.0099,0.01,0.0128,0.0127,0.0127,0.0127,0.0216,0.0218,0.0221,0,0,0,0,0,0,0,0,0,0,0,0,0,-0.0119,-0.0117,0.0014,0.0015,0.0016,0.0098,0.0099,0.01,0.0128,0.0127,0.0127,0.0127,0.0215,0.0218,0.0221,0,0,0,0,0,0,0,0,0,0,0,0,0,-0.0051,-0.0116,0.0014,0.004,0.0043,0.0098,0.0099,0.01,0.0128,0.0127,0.0127,0.0126,0.0214,0.0218,0.0222,0.0258,0,0,0.0234,0.0236,0,0,0,0,0,0,0,0,-0.0055,-0.0046,0.0035,0.0038,0.0042,0.0102,0.0085,0.0153,0.0128,0.0096,0.0127,0.0126,0.0178,0.0185,0.0202,0.0262,0.0266,0.0234,0.0237,0.0239,0.024,0,0,0,0,0,0,0,-0.006,-0.005,0.0047,0.0036,0.004,0.0048,0.0057,0.0098,0.0139,0.0099,0.0101,0.011,0.018,0.0198,0.0205,0.0267,0.0234,0.0238,0.024,0.0242,0.036,0.0361,0,0,0,0,0,0,-0.0069,-0.0054,0.0045,0.005,-0.0009,0.0051,0.0061,0.0083,0.0139,0.0147,0.011,0.0111,0.0192,0.02,0.0208,0.0254,0.0239,0.0242,0.0245,0.0359,0.036,0.0361,0,0,0,0,0,0,-0.0072,-0.0061,0.0041,-0.0001,0.0012,0.0054,0.0078,0.0085,0.0103,0.0148,0.0156,0.0121,0.0192,0.0202,0.0245,0.0257,0.0244,0.0248,0.0359,0.036,0.0361,0.0346,0,0,0,0,0,0,-0.0076,-0.0062,-0.0048,-0.0001,0.0014,0.0076,0.0079,0.0087,0.011,0.0111,0.016,0.0168,0.0192,0.0239,0.0249,0.0263,0.0251,0.0358,0.0359,0.036,0.0345,0.0346,0.0347,0,0,0,0,0,-0.0081,-0.0055,-0.0048,-0.0036,0.0032,0.0077,0.0086,0.0112,0.0111,0.0125,0.0154,0.0166,0.0254,0.0243,0.0255,0.027,0.0357,0.0359,0.036,0.0345,0.0346,0.0347,0,0,0,0,0,0,-0.0101,-0.0049,-0.004,0.0002,0.0034,0.0081,0.01,0.0113,0.0147,0.0148,0.018,0.0191,0.0231,0.0255,0.0241,0.0307,0.0306,0.031,0.0291,0.0292,0.0293,0.0286,0.0254,0,0,0,0,0,-0.0101,-0.007,-0.0025,0.0007,0.0023,0.0059,0.0079,0.0097,0.0132,0.0147,0.0178,0.0213,0.0249,0.0272,0.0307,0.0349,0.036,0.0365,0.0365,0.0366,0.0369,0.0393,0.0396,0.0366,0.0366,0.0366,0,0,-0.0099,-0.0067,-0.0049,0.0004,0.0031,0.0064,0.007,0.0104,0.0129,0.0152,0.0194,0.0218,0.026,0.0302,0.0322,0.0323,0.038,0.0368,0.0368,0.0371,0.0395,0.0398,0.04,0.0367,0.0367,0.0367,0,0,-0.0081,-0.0053,-0.0023,0.0004,0.0045,0.0068,0.0075,0.012,0.0137,0.0179,0.0198,0.0227,0.0288,0.0316,0.0339,0.0367,0.038,0.0378,0.0382,0.0405,0.0408,0.041,0.0421,0.0424,0.0381,0.0381,0.0381,0,-0.0084,-0.0036,-0.0009,0.0024,0.0047,0.0068,0.0099,0.0124,0.0175,0.0191,0.0191,0.0266,0.0296,0.0345,0.0352,0.0369,0.0379,0.0373,0.0405,0.0408,0.041,0.0421,0.0425,0.0381,0.0381,0.0381,0.0381,0,-0.0041,-0.0008,0.0011,0.0058,0.0084,0.0115,0.0147,0.017,0.0185,0.0208,0.0251,0.0287,0.033,0.0343,0.0358,0.0394,0.0393,0.0399,0.0398,0.0412,0.0422,0.0427,0.038,0.038,0.038,0.038,0,0,-0.0032,0.0029,0.0035,0.0057,0.0103,0.013,0.0163,0.0204,0.0222,0.0256,0.0285,0.0335,0.034,0.0366,0.0385,0.0405,0.0425,0.0408,0.0409,0.041,0.0468,0.0464,0.0468,0.0434,0.0435,0.0435,0.0464,0,-0.0007,0.0052,0.0076,0.0124,0.0155,0.0176,0.0204,0.0236,0.0259,0.029,0.0315,0.035,0.0354,0.0369,0.039,0.0418,0.0438,0.0417,0.0462,0.0463,0.0451,0.0473,0.0469,0.0495,0.0469,0.0469,0.047,0,0.003,0.0064,0.0114,0.0156,0.017,0.0195,0.0235,0.0263,0.03,0.0315,0.0343,0.0361,0.0397,0.0393,0.0443,0.0428,0.0448,0.0465,0.0467,0.0472,0.0468,0.048,0.0504,0.0508,0.0476,0.0476,0.0475,0,0.0033,0.009,0.0127,0.0145,0.0196,0.0213,0.0235,0.0271,0.0294,0.0328,0.0343,0.0382,0.0403,0.0432,0.046,0.0455,0.0508,0.0507,0.0522,0.0522,0.0533,0.0532,0.0561,0.0545,0.0545,0.0545,0.0545,0,0.0058,0.0088,0.0129,0.0152,0.0187,0.0215,0.0248,0.0272,0.0304,0.0332,0.0352,0.0379,0.0414,0.0445,0.0467,0.0505,0.0515,0.0529,0.0534,0.0527,0.0525,0.0541,0.054,0.0546,0.0546,0.0545,0.0545,0,0.0067,0.0095,0.0137,0.0181,0.0193,0.0216,0.0254,0.0278,0.0301,0.0337,0.0347,0.0384,0.0422,0.0452,0.0502,0.0517,0.0557,0.0563,0.0544,0.0547,0.0561,0.056,0.0601,0.0608,0.0587,0.0587,0.0588,0,0.0082,0.0105,0.0151,0.0171,0.0192,0.0225,0.0248,0.0276,0.03,0.0343,0.0361,0.04,0.0433,0.0492,0.0524,0.0562,0.057,0.0582,0.0576,0.0568,0.057,0.0569,0.0572,0.0583,0.0583,0.0583,0.0583,0,0.0105,0.0118,0.0149,0.0186,0.0213,0.0243,0.0275,0.029,0.0324,0.035,0.0388,0.0413,0.0463,0.0502,0.0543,0.0566,0.0581,0.0584,0.059,0.0583,0.0571,0.0578,0.0547,0.0583,0.0583,0.0583,0.0583,0.0583,0.0117,0.0139,0.0175,0.021,0.0236,0.0264,0.0288,0.0314,0.0346,0.0389,0.0404,0.0443,0.0479,0.0536,0.056,0.0591,0.0593,0.0601,0.0603,0.0605,0.0604,0.0566,0.0599,0.0599,0.0599,0.0599,0.0599,0,0.0142,0.0166,0.0197,0.024,0.0267,0.0277,0.0312,0.0334,0.0368,0.0401,0.0432,0.0476,0.0513,0.0548,0.0587,0.0606,0.0613,0.0615,0.0614,0.0619,0.06,0.0592,0.0608,0.0608,0.0608,0.0608,0.0608,0.0608,0.0158,0.0195,0.0212,0.0263,0.0287,0.0325,0.0344,0.037,0.0396,0.0444,0.0475,0.0496,0.053,0.0571,0.0606,0.0615,0.0629,0.0629,0.064,0.0622,0.0621,0.062,0.0612,0.0632,0.0632,0.0657,0.0657,0.0657]}]]